Gastonia, NC

5:43 PM EDT on August 29, 2016 (GMT -0400)
Gastonia Municipal

Weather History for KAKH - August, 2014

Change the Weather History Date:

Tuesday, August 19, 2014

  Actual Average (KCLT) Record (KCLT)
Temperature  
Mean Temperature 78 °F 77 °F  
Max Temperature 87 °F 87 °F 100 °F (1988)
Min Temperature 69 °F 67 °F 59 °F (1981)
Degree Days  
Heating Degree Days 0 0  
Month to date heating degree days 0  
Since 1 June heating degree days 3  
Since 1 July heating degree days 0  
Cooling Degree Days 12 12  
Month to date cooling degree days 245  
Year to date cooling degree days 1139  
Since 1 June cooling degree days 976  
Growing Degree Days 28 (Base 50)    
Moisture  
Dew Point 70 °F    
Average Humidity 84    
Maximum Humidity 100    
Minimum Humidity 61    
Precipitation  
Precipitation 0.44 in 0.14 in 1.96 in (2010)
Month to date precipitation 2.62  
Year to date precipitation 27.00  
Snow  
Snow 0.00 in 0.00 in 0.00 in ()
Month to date snowfall 0.0  
Since 1 June snowfall 0.0  
Since 1 July snowfall 0.0  
Snow Depth -    
Sea Level Pressure  
Sea Level Pressure 29.86 in    
Wind  
Wind Speed 2 mph (SSW)    
Max Wind Speed 13 mph    
Max Gust Speed -    
Visibility 8 miles    
Events Rain , Thunderstorm    
T = Trace of Precipitation, MM = Missing Value Source: NWS Daily Summary

Daily Weather History Graph

Daily Weather History Graph

Search for Another Location

Airport or City:

Trip Planner

Search our weather history database for the weather conditions in past years. The results will help you decide how hot, cold, wet, or windy it might be!

Date:

Astronomy

Aug. 19, 2014 Rise Set
Actual Time 6:47 AM EDT 8:08 PM EDT
Civil Twilight 6:20 AM EDT 8:35 PM EDT
Nautical Twilight 5:48 AM EDT 9:06 PM EDT
Astronomical Twilight 5:15 AM EDT 9:39 PM EDT
Moon 1:42 AM EDT (8/19) 3:59 PM EDT (8/19)
Length of Visible Light 14h 14m
Length of Day
13h 21m
Waning Crescent, 29% of the Moon is Illuminated
Aug 19
Waning Crescent
Aug 25
New
Sep 2
First Quarter
Sep 8
Full
Sep 15
Last Quarter

Hourly Weather History & Observations

Time (EDT) Temp. Heat Index Dew Point Humidity Pressure Visibility Wind Dir Wind Speed Gust Speed Precip Events Conditions
12:54 AM 72.0 °F - 68.0 °F 87% 29.83 in 10.0 mi Calm Calm - N/A   Overcast
1:54 AM 72.0 °F - 68.0 °F 87% 29.81 in 10.0 mi Calm Calm - N/A   Clear
2:54 AM 71.1 °F - 68.0 °F 90% 29.81 in 10.0 mi WSW 4.6 mph - N/A   Mostly Cloudy
3:54 AM 70.0 °F - 66.9 °F 90% 29.80 in 10.0 mi WSW 4.6 mph - N/A   Clear
4:54 AM 69.1 °F - 66.9 °F 93% 29.81 in 10.0 mi SW 3.5 mph - N/A   Clear
5:54 AM 69.1 °F - 66.9 °F 93% 29.83 in 8.0 mi Calm Calm - N/A   Clear
6:54 AM 69.1 °F - 66.9 °F 93% 29.84 in 8.0 mi Calm Calm - N/A   Clear
7:54 AM 72.0 °F - 69.1 °F 91% 29.85 in 10.0 mi SW 3.5 mph - N/A   Clear
8:54 AM 75.9 °F - 70.0 °F 82% 29.86 in 10.0 mi Calm Calm - N/A   Clear
9:54 AM 75.9 °F - 70.0 °F 82% 29.86 in 10.0 mi Calm Calm - N/A   Clear
10:54 AM 81.0 °F 84.9 °F 71.1 °F 72% 29.87 in 10.0 mi Calm Calm - N/A   Clear
11:54 AM 84.0 °F 88.4 °F 70.0 °F 63% 29.87 in 10.0 mi SE 3.5 mph - N/A   Clear
12:54 PM 82.0 °F 86.7 °F 72.0 °F 71% 29.86 in 10.0 mi South 4.6 mph - N/A   Mostly Cloudy
1:54 PM 86.0 °F 91.5 °F 71.1 °F 61% 29.84 in 10.0 mi Calm Calm - N/A   Partly Cloudy
2:19 PM 86.0 °F 91.5 °F 71.1 °F 61% 29.86 in 10.0 mi Variable 3.5 mph - N/A Thunderstorm Partly Cloudy
2:36 PM 84.9 °F 89.4 °F 70.0 °F 61% 29.86 in 10.0 mi North - - N/A   Mostly Cloudy
2:54 PM 75.9 °F - 68.0 °F 76% 29.86 in 1.8 mi NNE 12.7 mph - 0.16 in Rain Heavy Rain
3:08 PM 73.9 °F - 70.0 °F 87% 29.87 in 1.5 mi East 6.9 mph - 0.21 in Rain , Thunderstorm Heavy Rain
3:16 PM 73.9 °F - 70.0 °F 87% 29.86 in 1.8 mi East 4.6 mph - 0.25 in Rain , Thunderstorm Thunderstorms and Rain
3:19 PM 73.9 °F - 70.0 °F 87% 29.86 in 3.0 mi Calm Calm - 0.25 in Rain , Thunderstorm Thunderstorms and Rain
3:54 PM 73.0 °F - 70.0 °F 90% 29.85 in 6.0 mi WSW 5.8 mph - 0.27 in Rain , Thunderstorm Thunderstorms and Rain
4:54 PM 73.9 °F - 71.1 °F 91% 29.85 in 10.0 mi Calm Calm - 0.01 in Rain Light Rain
5:54 PM 79.0 °F - 72.0 °F 79% 29.85 in 10.0 mi SSW 5.8 mph - 0.00 in   Clear
6:54 PM 79.0 °F - 73.0 °F 82% 29.85 in 10.0 mi SSW 5.8 mph - N/A   Clear
7:54 PM 77.0 °F - 72.0 °F 84% 29.86 in 10.0 mi SW 3.5 mph - N/A   Clear
8:54 PM 73.9 °F - 71.1 °F 91% 29.87 in 8.0 mi Calm Calm - 0.00 in   Partly Cloudy
9:52 PM 71.6 °F - 71.6 °F 100% 29.90 in 1.8 mi Calm Calm - N/A   Partly Cloudy
9:54 PM 72.0 °F - 71.1 °F 97% 29.88 in 1.8 mi Calm Calm - N/A   Partly Cloudy
10:39 PM 72.0 °F - 70.0 °F 93% 29.91 in 2.5 mi Calm Calm - N/A   Clear
10:54 PM 72.0 °F - 70.0 °F 93% 29.90 in 9.0 mi Calm Calm - N/A   Clear
11:54 PM 71.1 °F - 69.1 °F 93% 29.90 in 2.0 mi Calm Calm - N/A   Clear